Lid_Strength_Index
4 4 4 4 4 4 4 4 4 4 4 4 4 4 3 3 3 5 10 6 5 -1 -0 6 4 8 10 10 5 4 11 14 12 12 11 7 8 5 4 6 5 5 5 4 2
4 4 4 4 4 4 4 4 4 4 4 4 4 4 4 3 7 8 4 1 -1 -2 7 9 7 10 10 10 9 8 12 12 8 8 10 8 8 7 7 7 7 6 4 3 2
3 4 4 4 4 4 4 4 4 4 4 4 4 4 4 4 10 9 -1 -1 -3 -1 8 9 7 8 10 10 9 8 11 8 8 7 7 8 8 5 8 9 7 7 6 4 4
3 3 4 4 4 4 4 4 4 4 4 4 4 4 3 8 12 6 -3 -2 -2 0 9 10 9 9 11 11 8 10 8 8 7 7 7 8 7 7 6 7 5 5 4 4 4
3 3 3 4 4 4 4 4 4 4 5 4 4 3 7 11 9 4 -1 -2 0 7 9 10 8 8 11 11 8 10 8 7 7 6 7 7 8 8 7 5 4 4 4 4 4
3 3 3 3 4 4 4 4 4 4 4 4 3 3 9 13 6 1 0 1 5 9 10 10 8 8 10 9 9 8 8 8 7 7 7 9 8 7 7 5 5 5 5 4 4
4 4 3 4 4 4 4 4 4 4 4 4 3 4 10 11 2 3 4 4 6 9 10 10 10 10 10 10 7 7 10 9 8 8 9 7 11 10 6 5 6 6 5 4 4
4 4 4 4 4 4 4 5 4 4 4 3 3 6 10 6 4 4 4 4 5 9 9 9 9 10 11 6 8 10 10 14 10 8 8 8 14 9 6 6 7 6 5 5 4
4 4 4 5 5 5 5 5 4 3 3 3 7 9 9 2 5 4 4 5 7 9 10 6 9 12 8 11 12 11 16 14 12 8 9 9 12 8 6 6 7 6 6 5 5
4 4 5 5 5 5 5 4 3 3 3 2 4 9 8 7 6 6 5 6 8 9 9 10 11 13 13 11 16 15 15 13 14 10 9 11 11 9 7 7 7 7 6 6 5
4 4 4 4 5 5 7 8 9 9 6 8 8 7 6 5 5 6 5 6 8 9 11 11 12 14 13 12 10 11 13 14 12 10 11 11 11 10 8 7 7 7 6 6 5
4 4 4 4 4 5 7 9 8 7 10 6 5 5 4 5 7 6 5 7 9 11 10 12 14 11 10 10 11 12 13 14 11 10 10 12 12 10 8 8 7 7 7 6 6
4 4 4 5 5 6 8 7 6 6 10 7 5 5 6 5 8 8 6 8 9 11 11 12 11 9 10 11 11 12 13 13 13 11 10 11 13 12 9 8 7 6 6 5 5
4 4 5 5 8 7 8 5 6 6 12 9 8 6 7 7 8 5 6 8 9 11 11 12 9 9 11 12 10 14 10 10 12 13 16 11 19 14 11 10 8 7 6 6 5
4 4 5 6 9 8 7 6 7 7 16 8 8 6 8 9 8 7 6 7 11 11 11 11 11 11 12 12 9 11 9 10 11 13 14 14 16 14 11 12 10 8 7 6 5
4 4 5 7 8 6 6 7 7 12 15 10 8 9 10 9 8 8 8 7 8 10 10 10 8 10 11 8 8 9 11 11 12 14 18 15 16 16 14 12 10 8 7 6 5
5 5 6 6 8 6 7 7 12 16 10 11 12 11 11 11 9 9 10 12 12 13 14 11 10 9 8 11 9 10 13 19 19 19 20 14 16 14 10 9 9 8 7 6 5
6 6 7 6 7 6 7 11 15 11 12 11 11 10 11 10 11 10 11 12 11 12 14 15 15 11 8 11 12 12 13 17 21 21 18 14 17 14 8 7 7 6 6 5 5
6 9 9 7 6 7 8 13 13 12 10 11 11 11 11 9 10 10 11 11 11 12 13 15 13 9 9 8 9 12 15 11 16 15 18 16 13 10 8 8 7 7 6 6 5
8 8 9 6 5 7 10 11 11 8 10 10 13 12 13 11 11 11 11 9 10 9 11 12 14 11 9 8 9 10 9 15 14 20 21 18 16 15 11 10 8 8 7 6 5
8 10 8 6 6 8 12 12 9 7 9 10 11 12 12 12 12 12 12 9 9 9 10 12 13 12 11 12 13 13 14 14 12 14 19 20 17 10 10 10 9 8 7 6 5
11 11 7 7 9 13 12 10 8 8 9 9 9 10 12 11 12 12 12 10 7 9 11 11 14 15 12 10 10 12 13 13 14 14 15 16 14 9 9 8 8 7 7 6 5
11 11 7 8 13 13 12 10 8 10 11 10 10 10 9 11 12 11 10 7 7 8 10 10 14 16 14 12 11 12 12 14 15 14 14 15 14 9 8 9 8 7 6 6 5
10 11 9 10 12 12 12 10 11 9 9 9 9 9 10 11 10 12 11 8 7 7 6 7 14 14 16 14 12 14 12 12 15 15 15 14 15 12 10 10 9 8 7 6 6
10 11 9 11 10 10 11 11 10 11 9 9 10 9 10 13 12 12 10 9 8 6 8 10 13 13 13 11 12 13 13 13 15 15 14 13 14 12 10 9 8 7 7 6 6
11 8 7 9 9 10 11 10 10 10 10 11 11 9 9 11 10 11 10 10 10 9 10 10 13 14 14 11 11 13 12 12 12 12 13 13 13 9 8 7 8 8 7 7 7
10 8 7 9 9 10 10 9 8 9 9 8 9 9 10 9 8 9 9 10 10 11 11 11 12 14 16 13 13 15 13 12 12 11 12 15 12 9 9 9 8 8 7 7 6